Location: 3 Angels Observatory
(30.5437°N, 88.5068°W)
Time: 12:25:18
(UTC-05:00)

Daily predictions for brighter satellites

Satellite Brightness Start Highest point End
(mag) Time Altitude Azimuth Time Altitude Azimuth Time Altitude Azimuth
OAO 2 Rocket 3.9 19:43:37 10° WNW 19:48:47 54° N 19:53:49 10° E
Cosmos 1805 Rocket 4.1 19:50:05 10° NNE 19:54:07 38° E 19:58:09 10° SSE
Cosmos 2154 Rocket 4.3 19:48:53 10° SSE 19:54:49 46° E 20:00:43 10° NNE
SL-8 R/B 3.7 19:50:21 10° SW 19:55:07 80° SE 19:59:55 10° NE
ATLAS CENTAUR R/B 1.3 19:51:42 10° S 19:55:09 44° ESE 19:58:41 10° NE
H-2A R/B 1.5 19:50:14 10° W 19:56:27 52° SSW 19:58:35 10° SE
Cosmos 2184 Rocket 4.1 19:51:59 10° S 19:58:08 85° W 20:04:20 10° N
Resurs 01 Rocket 3.1 20:02:01 10° ESE 20:05:09 20° ENE 20:08:19 10° NNE
SJ-6B 3.0 20:04:49 10° SSE 20:08:47 54° ENE 20:12:41 10° N
Meteor 2-21 4.5 20:02:49 10° S 20:08:51 64° E 20:14:57 10° NNE
Haruka 3.5 20:01:23 10° W 20:12:40 77° SSW 20:15:52 15° ESE
deb Centaur AC-2 4.0 20:09:31 10° W 20:13:50 85° S 20:17:41 15° E
Cosmos 1939 Rocket 3.9 20:13:06 14° ESE 20:15:35 26° ENE 20:18:52 10° NNE
Cosmos 2341 Rocket 4.3 20:12:05 10° SSE 20:18:08 48° E 20:24:11 10° NNE
NOSS 3-3 (A) 4.2 20:12:20 10° SW 20:18:13 73° WNW 20:24:35 10° NNE
NOSS 3-3 (C) 4.2 20:12:26 10° SW 20:18:18 74° WNW 20:24:41 10° NNE
NOSS 0 Rocket 4.0 20:13:22 10° S 20:19:21 56° ESE 20:25:23 10° NNE
Aureole 2 4.2 20:22:28 10° S 20:25:35 52° ESE 20:28:29 10° NNE
Cosmos 1980 3.8 20:20:40 10° S 20:26:09 53° ESE 20:31:40 10° NNE
Cosmos 494 Rocket 4.5 20:24:23 10° NNW 20:29:32 62° WSW 20:34:41 10° S
USA 267 4.2 20:28:30 10° ENE 20:33:29 23° ESE 20:38:26 10° S
Cosmos 1666 Rocket 3.5 20:30:24 10° N 20:34:52 72° E 20:39:01 12° SSE
GPS 2-05 Rocket1 4.0 20:33:12 10° W 20:36:14 31° SSW 20:37:37 22° SSE
Cosmos 2333 Rocket 2.5 20:31:19 10° SSW 20:36:57 71° WNW 20:42:36 10° NNE
ERS-2 2.0 20:34:32 14° SSE 20:37:39 89° ENE 20:41:20 10° NNW
Resurs 1-3 3.8 20:35:47 22° SE 20:38:20 49° ENE 20:42:34 10° N
Cosmos 1151 Rocket 3.3 20:35:40 16° SSE 20:38:39 42° E 20:42:41 10° NNE
CZ-2D R/B 3.8 20:35:02 10° S 20:38:45 56° W 20:42:30 10° NNW
Cosmos 1408 4.4 20:36:20 10° NNE 20:38:11 17° ENE 20:38:11 17° ENE
Cosmos 1455 2.1 20:35:17 10° S 20:39:04 87° E 20:42:55 10° N
Meteor 2-21 Rocket 4.5 20:33:44 10° S 20:39:50 87° W 20:46:02 10° N
Meteor 1-27 4.2 20:34:18 10° S 20:40:03 81° E 20:45:45 10° N
USA 186 0.9 20:40:40 63° NNE 20:40:40 63° NNE 20:42:40 10° N
COSMOS 2428 4.5 20:37:03 10° SW 20:42:15 35° WNW 20:47:27 10° N
SL-8 Rocket 4.2 20:37:30 10° SSE 20:43:32 50° E 20:49:33 10° NNE
Sich 1 3.1 20:40:35 10° N 20:44:50 75° W 20:49:05 10° S
Cosmos 1844 Rocket 2.7 20:40:38 10° NNW 20:46:19 85° WSW 20:50:46 17° SSE
Envisat 3.6 20:43:08 10° S 20:48:07 56° W 20:53:06 10° NNW
YAOGAN 6 2.5 20:48:33 28° S 20:50:21 88° W 20:53:59 10° NNW
Cosmos 2219 Rocket 3.5 20:46:11 10° SW 20:51:32 43° WNW 20:56:53 10° N
Cosmos 1892 2.9 20:48:40 10° N 20:52:32 71° W 20:55:08 20° S
Cosmos 1844 3.6 20:47:27 10° NNW 20:53:12 84° ENE 20:56:42 25° SSE
Cosmos 2237 Rocket 2.1 20:47:52 10° SSW 20:53:28 88° ESE 20:59:07 10° NNE
Cosmos 2251 Rocket 3.8 20:49:00 10° NNW 20:54:20 69° WSW 20:58:38 16° S
SJ-11-01 4.2 20:53:31 33° SE 20:55:31 64° ENE 21:00:08 10° N
Cosmos 2056 Rocket 3.8 20:57:11 26° SSE 20:59:48 46° ESE 21:04:57 10° NNE
Genesis I 3.9 21:01:22 10° NNW 21:05:02 39° NE 21:05:02 39° NE
Cosmos 1633 Rocket 3.7 21:02:37 10° NNW 21:06:52 54° W 21:09:49 19° SSW
Cosmos 2098 Rocket 3.4 21:07:13 49° E 21:07:13 49° E 21:11:17 10° NNE
NOAA 11 4.2 21:05:45 39° SE 21:07:46 65° ENE 21:13:13 10° N
Cosmos 2278 Rocket 2.5 21:03:32 10° N 21:08:57 45° ENE 21:09:51 41° E
Cosmos 1515 Rocket 3.9 21:07:54 10° SSW 21:12:14 65° W 21:16:40 10° N
Cosmos 864 Rocket 4.4 21:12:07 32° SSE 21:15:00 65° E 21:21:03 10° NNE
Cosmos 1624 Rocket 3.8 21:13:55 27° S 21:16:48 74° ESE 21:21:58 10° NNE
Cosmos 2228 Rocket 3.7 21:13:14 11° SSW 21:17:20 55° W 21:21:39 10° N
Sakura Rocket 3.1 21:17:09 10° W 21:21:08 59° SW 21:21:08 59° SW
ATLAS 2A CENTAUR R/B 3.9 21:03:16 10° WSW 21:23:43 58° S 21:27:50 39° ESE
ASTRO E2 3.6 21:23:18 10° WSW 21:26:03 42° WSW 21:26:03 42° WSW
Spot 2 Rocket 3.9 21:29:14 39° SSW 21:30:57 60° WSW 21:35:59 10° NNW
Cosmos 1825 3.3 21:27:19 10° N 21:29:47 39° N 21:29:47 39° N
OAO 2 Rocket 3.3 21:28:36 10° WNW 21:33:39 77° SW 21:33:39 77° SW
ATLAS 2AS CENTAUR R/B 2.8 21:30:06 10° NNW 21:37:51 85° WSW 21:39:43 54° SSE
Resurs 01 Rocket 3.4 21:39:36 21° SW 21:41:23 28° W 21:45:12 10° NW
SL-16 R/B 2.1 21:43:11 76° SSW 21:43:40 88° WNW 21:49:21 10° NNE
GEOS 3 Rocket 3.8 21:39:24 10° NNE 21:43:44 60° NE 21:43:44 60° NE
Cosmos 2344 3.4 21:39:42 10° SSW 21:47:27 68° ESE 21:55:12 10° NE
ARGOS 3.3 21:48:16 62° NNE 21:48:16 62° NNE 21:52:50 10° N
Cosmos 1727 Rocket 3.9 21:52:24 10° N 21:58:14 80° N 21:58:14 80° N
Meteor 2-10 Rocket 4.5 22:01:53 39° WSW 22:03:25 49° W 22:09:01 10° N
ERS-1 Rocket 4.2 22:10:08 37° N 22:10:08 37° N 22:13:07 10° N
NOSS 3-4 (A) 4.2 22:01:18 10° NNW 22:07:53 50° NE 22:07:53 50° NE
NOSS 3-4 (C) 4.3 22:01:24 10° NNW 22:07:59 49° NE 22:07:59 49° NE
H-2A R/B 3.2 22:17:10 38° NNW 22:17:10 38° NNW 22:20:14 10° NNW
USA 267 3.3 22:10:12 10° NE 22:16:42 72° NW 22:23:11 10° SW
Cosmos 2278 Rocket 4.4 22:48:48 10° WNW 22:51:44 18° W 22:51:44 18° W
